Simultaneous Nadir Overpasses (SNOs) Predictions

Prediction of SNOs between LANDSAT-8 and NPP Satellite Orbit:

Table of predicted SNOs for the next 14.0 days since TLE Epoch: 4/28/2018
Index Date (LANDSAT-8) Time (LANDSAT-8) Lat,Lon (LANDSAT-8) SZA (LANDSAT-8 ) Date (NPP) Time (NPP) Lat,Lon (NPP) SZA (NPP ) Distance(km) Time Diff (sec)
1 04/28/2018 13:51:24 70.95, -30.49 56.61 04/28/2018 13:50:16 71.01, -32.70 56.72 80.22 68
2 04/28/2018 14:41:06 -70.18, 135.99 124.16 04/28/2018 14:40:44 -70.18, 135.97 124.16 0.86 22
3 04/28/2018 15:30:33 70.08, -56.51 55.74 04/28/2018 15:31:28 70.07, -56.56 55.72 2.31 55
4 05/01/2018 06:08:05 70.22, 84.29 55.07 05/01/2018 06:06:57 70.24, 84.32 55.10 2.93 68
5 05/01/2018 06:57:34 -70.16,-108.16 125.01 05/01/2018 06:57:39 -70.14,-108.21 125.02 2.57 5
6 05/01/2018 07:47:07 69.72, 58.88 54.57 05/01/2018 07:48:17 69.72, 59.74 54.54 33.27 70
7 05/03/2018 22:24:33 70.19,-159.88 54.24 05/03/2018 22:23:52 70.21,-159.86 54.27 2.56 41
8 05/03/2018 23:14:03 -70.08, 7.60 125.88 05/03/2018 23:14:34 -70.11, 7.61 125.85 3.33 31
9 05/06/2018 13:51:23 -70.81, 149.28 125.91 05/06/2018 13:50:13 -70.86, 147.56 125.82 62.91 70
10 05/06/2018 14:41:00 70.16, -44.04 53.44 05/06/2018 14:40:46 70.18, -44.05 53.48 3.06 14
11 05/06/2018 15:30:30 -70.05, 123.44 126.67 05/06/2018 15:31:28 -70.08, 123.43 126.65 3.23 58
12 05/09/2018 06:08:01 -70.23, -95.70 127.21 05/09/2018 06:06:57 -70.25, -95.70 127.18 2.63 64
13 05/09/2018 06:57:28 70.12, 71.78 52.68 05/09/2018 06:57:40 70.10, 71.85 52.66 2.94 12
14 05/09/2018 07:47:05 -69.63,-121.27 127.81 05/09/2018 07:48:15 -69.63,-120.12 127.84 44.25 70
15 05/11/2018 22:24:29 -70.19, 20.12 127.94 05/11/2018 22:23:51 -70.18, 20.20 127.96 3.49 38
16 05/11/2018 23:13:56 70.08,-172.40 51.94 05/11/2018 23:14:35 70.08,-172.34 51.94 2.17 39




NCC Satellite Simultaneous Nadir Overpasses (SNOs) Prediction Service
